When you browse on this site, cookies collect data to enhance your experience and personalize the content and advertising you see.
Visit our Privacy Policy to learn more. By continuing to use the site, you agree to this use of cookies and data.
  • En España
  • Lista de países
  • Para 7 días
  • Temperatura del agua
  • El tiempo en el mapa
  • Informadores
  • user-avatar
    Iniciar sesión

    Tiempo cada hora Franceville

    Hoy, 31 Mayo, Domingo

    Tiempo Temperatura Precipitaciones Viento Presión Humedad
    00:00 +23°C° 0.1 mm 0 mps 731 mmHg 93%
    01:00 +23°C° 0 mm 0 mps 731 mmHg 95%
    02:00 +23°C° 0.8 mm 0 mps 731 mmHg 96%
    03:00 +23°C° 0.8 mm 0 mps 731 mmHg 96%
    04:00 +22°C° 0.8 mm 0 mps 731 mmHg 97%
    05:00 +23°C° 0.5 mm 0 mps 731 mmHg 96%
    06:00 +23°C° 0.5 mm 0 mps 732 mmHg 95%
    07:00 +23°C° 0.5 mm 0 mps 732 mmHg 94%
    08:00 +25°C° 0 mm 0 mps 732 mmHg 87%
    09:00 +26°C° 0 mm 0 mps 732 mmHg 81%
    10:00 +28°C° 0 mm 0 mps 733 mmHg 75%
    11:00 +29°C° 0.1 mm 0 mps 732 mmHg 70%
    12:00 +30°C° 0.1 mm 0 mps 732 mmHg 65%
    13:00 +33°C° 0.1 mm 1 mps 732 mmHg 60%
    14:00 +33°C° 0.1 mm 1 mps 731 mmHg 59%
    15:00 +31°C° 0.1 mm 0 mps 730 mmHg 58%
    16:00 +31°C° 0.1 mm 0 mps 729 mmHg 57%
    17:00 +29°C° 1.1 mm 0 mps 730 mmHg 67%
    18:00 +27°C° 1.1 mm 0 mps 731 mmHg 77%
    19:00 +25°C° 1.1 mm 0 mps 731 mmHg 87%
    20:00 +27°C° 2 mm 1 mps 731 mmHg 88%
    21:00 +26°C° 2 mm 1 mps 732 mmHg 90%
    22:00 +26°C° 2 mm 1 mps 732 mmHg 91%
    23:00 +26°C° 0.7 mm 1 mps 732 mmHg 92%

    Mañana, 1 Junio, Lunes

    Tiempo Temperatura Precipitaciones Viento Presión Humedad
    00:00 +26°C° 0.7 mm 1 mps 732 mmHg 93%
    01:00 +26°C° 0.7 mm 1 mps 732 mmHg 94%
    02:00 +23°C° 0 mm 0 mps 732 mmHg 94%
    03:00 +23°C° 0 mm 0 mps 731 mmHg 95%
    04:00 +23°C° 0 mm 0 mps 731 mmHg 95%
    05:00 +23°C° 0 mm 0 mps 732 mmHg 94%
    06:00 +23°C° 0 mm 0 mps 732 mmHg 94%
    07:00 +23°C° 0 mm 0 mps 733 mmHg 93%
    08:00 +26°C° 0 mm 0 mps 733 mmHg 83%
    09:00 +30°C° 0 mm 1 mps 733 mmHg 72%
    10:00 +32°C° 0 mm 1 mps 733 mmHg 62%
    11:00 +32°C° 0 mm 1 mps 732 mmHg 62%
    12:00 +32°C° 0 mm 1 mps 732 mmHg 62%
    13:00 +32°C° 0 mm 1 mps 731 mmHg 61%
    14:00 +32°C° 0.4 mm 1 mps 731 mmHg 63%
    15:00 +32°C° 0.4 mm 1 mps 730 mmHg 64%
    16:00 +32°C° 0.4 mm 1 mps 730 mmHg 66%
    17:00 +30°C° 2.1 mm 1 mps 730 mmHg 74%
    18:00 +28°C° 2.1 mm 1 mps 731 mmHg 82%
    19:00 +25°C° 2.1 mm 0 mps 731 mmHg 90%
    20:00 +24°C° 2 mm 0 mps 731 mmHg 91%
    21:00 +24°C° 2 mm 0 mps 732 mmHg 91%
    22:00 +24°C° 2 mm 0 mps 732 mmHg 92%
    23:00 +24°C° 0.3 mm 0 mps 732 mmHg 93%

    Pasado mañana, 2 Junio, Martes

    Tiempo Temperatura Precipitaciones Viento Presión Humedad
    00:00 +25°C° 0.3 mm 1 mps 732 mmHg 94%
    01:00 +25°C° 0.3 mm 1 mps 732 mmHg 95%
    02:00 +25°C° 0 mm 1 mps 731 mmHg 95%
    03:00 +23°C° 0 mm 0 mps 731 mmHg 96%
    04:00 +23°C° 0 mm 0 mps 731 mmHg 96%
    05:00 +23°C° 0 mm 0 mps 731 mmHg 96%
    06:00 +23°C° 0 mm 0 mps 732 mmHg 95%
    07:00 +23°C° 0 mm 0 mps 732 mmHg 94%
    08:00 +25°C° 0 mm 0 mps 733 mmHg 85%
    09:00 +27°C° 0 mm 0 mps 733 mmHg 76%
    10:00 +29°C° 0 mm 0 mps 733 mmHg 67%
    11:00 +30°C° 0.1 mm 0 mps 733 mmHg 63%
    12:00 +31°C° 0.1 mm 0 mps 732 mmHg 59%
    13:00 +32°C° 0.1 mm 0 mps 732 mmHg 56%
    14:00 +33°C° 1.9 mm 1 mps 731 mmHg 65%
    15:00 +31°C° 1.9 mm 1 mps 730 mmHg 74%
    16:00 +29°C° 1.9 mm 1 mps 730 mmHg 83%
    17:00 +28°C° 1.4 mm 1 mps 730 mmHg 85%
    18:00 +27°C° 1.4 mm 1 mps 731 mmHg 88%
    19:00 +26°C° 1.4 mm 1 mps 731 mmHg 91%
    20:00 +26°C° 0.2 mm 1 mps 731 mmHg 92%
    21:00 +26°C° 0.2 mm 1 mps 732 mmHg 94%
    22:00 +25°C° 0.2 mm 1 mps 732 mmHg 95%
    23:00 +25°C° 0 mm 1 mps 732 mmHg 95%

    3 Junio, Miércoles

    Tiempo Temperatura Precipitaciones Viento Presión Humedad
    00:00 +25°C° 0 mm 1 mps 732 mmHg 96%
    01:00 +24°C° 0 mm 1 mps 731 mmHg 96%
    02:00 +22°C° 0 mm 0 mps 731 mmHg 96%
    03:00 +22°C° 0 mm 0 mps 731 mmHg 96%
    04:00 +22°C° 0 mm 0 mps 730 mmHg 96%
    05:00 +22°C° 0 mm 0 mps 731 mmHg 95%
    06:00 +23°C° 0 mm 0 mps 731 mmHg 94%
    07:00 +23°C° 0 mm 0 mps 731 mmHg 94%
    08:00 +25°C° 0 mm 0 mps 732 mmHg 84%
    09:00 +27°C° 0 mm 0 mps 732 mmHg 75%
    10:00 +31°C° 0 mm 1 mps 733 mmHg 65%
    11:00 +33°C° 0 mm 1 mps 732 mmHg 59%
    12:00 +32°C° 0 mm 0 mps 731 mmHg 54%
    13:00 +34°C° 0 mm 0 mps 730 mmHg 48%
    14:00 +33°C° 0 mm 0 mps 730 mmHg 49%
    15:00 +33°C° 0 mm 0 mps 730 mmHg 50%
    16:00 +32°C° 0 mm 0 mps 729 mmHg 51%
    17:00 +32°C° 1.1 mm 1 mps 730 mmHg 63%
    18:00 +29°C° 1.1 mm 1 mps 730 mmHg 75%
    19:00 +27°C° 1.1 mm 1 mps 730 mmHg 87%
    20:00 +26°C° 1 mm 1 mps 731 mmHg 89%
    21:00 +26°C° 1 mm 1 mps 731 mmHg 90%
    22:00 +26°C° 1 mm 1 mps 731 mmHg 91%
    23:00 +26°C° 0.3 mm 1 mps 731 mmHg 92%

    4 Junio, Jueves

    Tiempo Temperatura Precipitaciones Viento Presión Humedad
    00:00 +25°C° 0.3 mm 1 mps 731 mmHg 93%
    01:00 +23°C° 0.3 mm 0 mps 731 mmHg 93%
    02:00 +23°C° 0.1 mm 0 mps 731 mmHg 94%
    03:00 +23°C° 0.1 mm 0 mps 731 mmHg 94%
    04:00 +23°C° 0.1 mm 0 mps 731 mmHg 95%
    05:00 +23°C° 0.7 mm 0 mps 731 mmHg 95%
    06:00 +23°C° 0.7 mm 0 mps 731 mmHg 95%
    07:00 +23°C° 0.7 mm 0 mps 732 mmHg 96%
    08:00 +23°C° 1.6 mm 0 mps 732 mmHg 95%
    09:00 +25°C° 1.6 mm 1 mps 732 mmHg 95%
    10:00 +25°C° 1.6 mm 1 mps 733 mmHg 94%
    11:00 +27°C° 0 mm 1 mps 732 mmHg 87%
    12:00 +28°C° 0 mm 1 mps 732 mmHg 79%
    13:00 +29°C° 0 mm 1 mps 731 mmHg 72%
    14:00 +30°C° 0 mm 1 mps 731 mmHg 68%
    15:00 +29°C° 0 mm 0 mps 730 mmHg 64%
    16:00 +30°C° 0 mm 0 mps 730 mmHg 60%
    17:00 +28°C° 0.2 mm 0 mps 730 mmHg 67%
    18:00 +26°C° 0.2 mm 0 mps 730 mmHg 74%
    19:00 +25°C° 0.2 mm 0 mps 731 mmHg 81%
    20:00 +24°C° 0.6 mm 0 mps 731 mmHg 84%
    21:00 +24°C° 0.6 mm 0 mps 732 mmHg 88%
    22:00 +24°C° 0.6 mm 0 mps 732 mmHg 92%
    23:00 +25°C° 1.1 mm 1 mps 732 mmHg 93%

    5 Junio, Viernes

    Tiempo Temperatura Precipitaciones Viento Presión Humedad
    00:00 +25°C° 1.1 mm 1 mps 732 mmHg 94%
    01:00 +25°C° 1.1 mm 1 mps 732 mmHg 95%
    02:00 +25°C° 0.3 mm 1 mps 731 mmHg 95%
    03:00 +23°C° 0.3 mm 0 mps 731 mmHg 95%
    04:00 +23°C° 0.3 mm 0 mps 731 mmHg 96%
    05:00 +23°C° 0 mm 0 mps 731 mmHg 95%
    06:00 +23°C° 0 mm 0 mps 732 mmHg 95%
    07:00 +23°C° 0 mm 0 mps 732 mmHg 94%
    08:00 +23°C° 0 mm 0 mps 732 mmHg 93%
    09:00 +23°C° 0 mm 0 mps 732 mmHg 93%
    10:00 +24°C° 0 mm 0 mps 733 mmHg 92%
    11:00 +25°C° 0 mm 0 mps 732 mmHg 86%
    12:00 +26°C° 0 mm 0 mps 732 mmHg 81%
    13:00 +27°C° 0 mm 0 mps 731 mmHg 76%
    14:00 +27°C° 0 mm 0 mps 731 mmHg 76%
    15:00 +27°C° 0 mm 0 mps 730 mmHg 76%
    16:00 +27°C° 0 mm 0 mps 730 mmHg 76%
    17:00 +26°C° 0 mm 0 mps 730 mmHg 79%
    18:00 +25°C° 0 mm 0 mps 730 mmHg 82%
    19:00 +26°C° 0 mm 1 mps 731 mmHg 85%
    20:00 +24°C° 0.4 mm 0 mps 731 mmHg 87%
    21:00 +23°C° 0.4 mm 0 mps 732 mmHg 89%
    22:00 +23°C° 0.4 mm 0 mps 732 mmHg 90%
    23:00 +23°C° 0 mm 0 mps 732 mmHg 91%
    Mostrar más